Retour au catalogue

STARLINK-35892

ActifCommunicationsVLEO
NORAD 67115·PAYLOAD·🇺🇸 United States

Lancé Dec 15, 2025 depuis Cape Canaveral Space Force Station

Loading…

Prochains Passages (prochaines 24 heures)

TLE

FraisSource: CelesTrak SupGP

Époque: Sep 14, 2026, 22:38 UTC

1 67115C 25299P   26257.94354167 -.00023351  00000+0 -84579-3 0  2576
2 67115  42.9994 179.9579 0001384 265.0353  65.3330 15.27588953    10

Suivez STARLINK-35892 en temps réel avec AllMySat

Download on the App Store